sat.trackr.live / text

‹ back to catalog

STARLINK-30535

NORAD 58001 · 2023-153L

PAYLOAD ACTIVE UNKNOWN

§ Identity

Operator
Country
US
Launch date
2023-10-05
Launch site
AFETR
Launch vehicle
Mass (kg)
RCS (m²)

Purposes: comms

External: N2YO · Heavens-Above · Gunter

§ Orbital elements

Epoch: 2026-05-24T22:49:04.559808Z

Period
94.27 min
Inclination
43.0031°
Eccentricity
0.0001354
Mean motion
15.27560993 rev/d
Perigee alt
482.2 km
Apogee alt
484.0 km
Semi-major
6,861.2 km
B*
-8.1681e-5
RAAN
356.0168°
Arg perigee
270.9179°
Mean anomaly
89.1518°
Rev number
14,656

§ Raw data

STARLINK-305351 58001U 23153L   26144.95074722 -.00002508  00000+0 -81681-4 0  99952 58001  43.0031 356.0168 0001354 270.9179  89.1518 15.27560993146565

JSON: /api/v1/satellites/58001 · /tle

For live sub-satellite position, see the globe view (requires WebGL).

§ Visibility from observer

Set your observer location to see the next 7 days of passes ≥ 10°. The values pass through the URL so the page stays shareable.

No JS? Fill the form by hand. The geolocation button needs JavaScript.